Flag for Germany

Past Weather in Eisenhüttenstadt, Brandenburg, Germany — Yesterday and Last 2 Weeks

Now
54 °F

Passing clouds.


Feels Like: 50 °F
Forecast: 64 / 53 °F
Wind: 12 mph from West

Location: Zielona Gora Airport

Current Time: Jul 7, 2020 at 5:57:16 am

Latest Report: Jul 7, 2020 at 5:00 am


Visibility: N/A

Pressure: 30.01 "Hg

Humidity: 88%

Dew Point: 50 °F

Location of EisenhüttenstadtLocation

Past Weather in Eisenhüttenstadt — Graph

°F

Eisenhüttenstadt Temperature Yesterday

Maximum temperature yesterday: 73 °F (at 10:30 am)
Minimum temperature yesterday: 63 °F (at 9:30 pm)
Average temperature yesterday: 70 °F

High & Low Weather Summary for the Past Weeks

 TemperatureHumidityPressure
High90 °F (Jun 28, 3:00 pm)100% (Jun 23, 5:00 am)30.24 "Hg (Jun 23, 5:00 am)
Low48 °F (Jun 24, 5:00 am)27% (Jul 6, 5:00 pm)29.71 "Hg (Jul 1, 9:00 pm)
Average71 °F63%29.95 "Hg
* Reported Jun 22 5:00 am — Jul 7 5:00 am, Eisenhüttenstadt. Weather by CustomWeather, © 2020

Note: Actual official high and low records may vary slightly from our data, if they occured in-between our weather recording intervals... More about our weather records

Eisenhüttenstadt Weather History for the Previous 24 Hours

Scroll right to see more
 ConditionsComfort  
Time TempWeatherWind HumidityBarometerVisibility
5:00 am
Tue, Jul 7
54 °FPassing clouds.12 mph88%30.01 "HgN/A
10:00 pm
Mon, Jul 6
63 °FClear.10 mph49%29.92 "Hg10 mi
9:30 pm63 °FPassing clouds.13 mph49%29.92 "HgN/A
9:00 pm64 °FSunny.12 mph46%29.89 "Hg10 mi
8:30 pm64 °FPassing clouds.10 mph46%29.89 "HgN/A
8:00 pm66 °FPassing clouds.16 mph40%29.89 "HgN/A
7:30 pm68 °FPassing clouds.20 mph35%29.89 "HgN/A
7:00 pm70 °FPassing clouds.16 mph33%29.86 "HgN/A
6:30 pm70 °FPassing clouds.16 mph38%29.83 "HgN/A
6:00 pm72 °FPassing clouds.14 mph29%29.83 "HgN/A
5:30 pm72 °FPassing clouds.15 mph29%29.83 "HgN/A
5:00 pm73 °FPassing clouds.14 mph27%29.83 "HgN/A
4:30 pm72 °FPassing clouds.17 mph31%29.83 "HgN/A
4:00 pm72 °FPassing clouds.18 mph31%29.83 "HgN/A
3:30 pm73 °FPassing clouds.17 mph31%29.83 "HgN/A
3:00 pm72 °FPassing clouds.14 mph33%29.80 "HgN/A
2:30 pm73 °FPassing clouds.16 mph31%29.80 "HgN/A
2:00 pm72 °FPassing clouds.17 mph38%29.80 "HgN/A
1:30 pm72 °FPassing clouds.15 mph36%29.80 "HgN/A
1:00 pm73 °FPassing clouds.17 mph36%29.80 "HgN/A
12:30 pm73 °FPassing clouds.16 mph38%29.80 "HgN/A
12:00 pm73 °FPassing clouds.17 mph41%29.77 "HgN/A
11:30 am73 °FSunny.20 mph41%29.77 "Hg10 mi
11:00 am73 °FScattered clouds.18 mph41%29.77 "HgN/A
10:30 am73 °FScattered clouds.17 mph50%29.77 "HgN/A
10:00 am70 °FPartly sunny.10 mph69%29.77 "HgN/A
9:30 am70 °FPartly sunny.14 mph64%29.77 "HgN/A
9:00 am70 °FScattered clouds.10 mph69%29.77 "HgN/A
8:30 am70 °FScattered clouds.10 mph73%29.77 "HgN/A
8:00 am70 °FPassing clouds.12 mph73%29.77 "HgN/A
7:30 am70 °FPassing clouds.9 mph73%29.77 "HgN/A
7:00 am70 °FSunny.9 mph73%29.77 "Hg10 mi
6:30 am68 °FSunny.5 mph83%29.77 "Hg10 mi
6:00 am66 °FSunny.5 mph88%29.77 "Hg10 mi
5:30 am64 °FSunny.3 mph94%29.77 "Hg10 mi
5:00 am66 °FPartly sunny.5 mph88%29.77 "HgN/A
Weather by CustomWeather, © 2020

See weather overview